Regional Weather Roundup
Issued by NWS

Home | Current Version | Previous Version | Text Only | Print | Product List | Glossary On
Versions: 1 2 3 4 5 6 7 8 9 10 11 12 13 14 15 16 17 18 19 20 21 22 23 24 25 26 27 28 29 30 31 32 33 34 35 36 37 38 39 40 41 42 43 44 45 46 47 48 49 50
000
ASUS43 KMPX 251910
RWRMN
WEATHER ROUNDUP FOR MINNESOTA
NATIONAL WEATHER SERVICE TWIN CITIES/CHANHASSEN MN
100 PM CST SUN JAN 25 2015


NOTE: "FAIR" INDICATES FEW OR NO CLOUDS BELOW 12,000 FEET WITH NO
SIGNIFICANT WEATHER AND/OR OBSTRUCTIONS TO VISIBILITY. N/A MEANS
CURRENT SKY AND/OR WEATHER CONDITIONS ARE NOT AVAILABLE.

MNZ060>063-068>070-252000-
   Twin Cities Metro

CITY           SKY/WX    TMP DP  RH WIND       PRES   REMARKS
TWIN CITIES    MOSUNNY   24  13  62 NE9       30.03S WCI  14
ST PAUL        CLOUDY    25  14  63 NE8       30.06R WCI  16
CRYSTAL        MOSUNNY   25  13  60 NE9       30.03R WCI  15
BLAINE         SUNNY     27  14  59 N9        30.04R WCI  17
LAKEVILLE      CLOUDY    19  16  86 NE7       30.02R WCI  10
EDEN PRAIRIE   MOSUNNY   25  14  63 NE7       30.01S WCI  17
SOUTH ST PAUL  CLOUDY    24  13  63 NE6       30.04R WCI  17
LAKE ELMO      CLOUDY    23  14  68 NE7       30.04S WCI  15
$$
MNZ001>005-007-008-013>017-022>024-027-028-252000-
   Northwest Minnesota

CITY           SKY/WX    TMP DP  RH WIND       PRES   REMARKS
BEMIDJI        CLOUDY    24  15  70 S7        30.00S WCI  16
HALLOCK        SUNNY     18   9  68 S6        30.04S WCI   9
ROSEAU         CLOUDY    16   7  67 SW3       30.02F
WARROAD        CLOUDY    12   3  67 CALM      30.03S
THIEF RVR FALL PTSUNNY   18   9  68 CALM      30.03F
CROOKSTON      PTSUNNY   19  12  73 CALM      30.05F
FOSSTON        MOSUNNY   27  16  63 CALM      30.02R
DETROIT LAKES  SUNNY     28  19  69 CALM      30.01S
MOORHEAD       SUNNY     25  19  80 NW3       30.05R
PARK RAPIDS    CLOUDY    26  18  71 S5        30.00S WCI  20
MAHNOMEN       FAIR      23  15  72 W5        30.01R WCI  17
$$
MNZ006-009>011-018-025>026-252000-
   North Central Minnesota

CITY           SKY/WX    TMP DP  RH WIND       PRES   REMARKS
BAUDETTE       PTSUNNY   13   5  70 S5        30.02S WCI   5
FLAG ISLAND    CLOUDY     9   1  72 S9        30.02F WCI  -5
INTL FALLS     CLOUDY    10   1  67 SE3       30.03F
WASKISH        CLOUDY    19   9  63 CALM      30.02S
BIG FORK       CLOUDY    23  14  68 S6        30.02S WCI  16
LONGVILLE      PTSUNNY   27  14  59 S5        30.02S WCI  21
GRAND RAPIDS   PTSUNNY   21  12  68 S10       30.01F WCI  10
CRANE LAKE     CLOUDY    14   3  62 CALM      30.07F
ORR            CLOUDY    18   7  62 CALM      30.00F
COOK           PTSUNNY   18   9  68 CALM      30.02F
WALKER         CLOUDY    23  15  71 SE3       30.00S
$$
MNZ012-019>021-037-252000-
   Northeast Minnesota

CITY           SKY/WX    TMP DP  RH WIND       PRES   REMARKS
DULUTH         LGT SNOW  20  13  74 E15       30.01S WCI   6
ELY            PTSUNNY   16   7  67 CALM      30.04R
HIBBING        CLOUDY    21  12  68 S5        30.02F WCI  15
EVELETH        MIX PCPN  21  12  68 E5        30.04R WCI  15
DULUTH HARBOR  CLOUDY    25  18  74 E15       30.08S WCI  12
TWO HARBORS    LGT SNOW  21  14  73 E9        30.04R WCI  11
SILVER BAY     LGT SNOW  18  12  79 NE7       30.05R WCI   8
GRAND MARAIS     N/A     14   3  61 E5        30.13F WCI   6
G MARAIS ARPRT PTSUNNY   10  -9  40 CALM      30.02S
$$
MNZ029>031-032-039>041-046>048-054>057-064-252000-
   West Central Minnesota

CITY           SKY/WX    TMP DP  RH WIND       PRES   REMARKS
FERGUS FALLS   SUNNY     27  19  74 W5        30.04S WCI  21
WHEATON        SUNNY     23  19  86 NW7       30.06S WCI  15
MORRIS         CLOUDY    27  23  86 NW5       30.02S WCI  21
ALEXANDRIA     CLOUDY    26  19  74 VRB5      30.01S WCI  20
ELBOW LAKE     FAIR      26  22  88 W8        30.01S WCI  17
WADENA         CLOUDY    25  18  74 SE3       30.00S
GLENWOOD       CLOUDY    27  19  74 CALM      30.02F
APPLETON       CLOUDY    28  25  86 NW5       30.04S WCI  23
BENSON         CLOUDY    28  21  74 CALM      30.03S
ORTONVILLE     SUNNY     27  19  74 N5        30.03F WCI  21
MADISON        CLOUDY    30  27  86 NW7       30.04S WCI  23
WILLMAR        CLOUDY    28  19  69 CALM      30.03F
$$
MNZ033>034-036-042>043-049>051-058-059-252000-
   Central Minnesota

CITY           SKY/WX    TMP DP  RH WIND       PRES   REMARKS
ST CLOUD       MOSUNNY   24  14  65 E5        30.03S WCI  18
SAUK CENTRE    CLOUDY    24  18  76 CALM      30.03S
PAYNESVILLE    CLOUDY    22  16  77 CALM      30.03F
AITKIN         CLOUDY    25  16  68 CALM      30.01S
PINE RIVER     CLOUDY    23  16  74 SE3       30.04F
BRAINERD       PTSUNNY   24  15  68 E5        30.03S WCI  18
STAPLES        CLOUDY    25  16  68 CALM      30.01F
LONG PRAIRIE   CLOUDY    23  18  80 CALM      30.02S
LITTLE FALLS   MOSUNNY   27  14  59 CALM      30.03F
LITCHFIELD     SUNNY     25  19  80 CALM      30.03S
BUFFALO        SUNNY     25  16  68 NE8       30.04S WCI  16
MAPLE LAKE     SUNNY     26  17  69 NE5       30.05R WCI  20
$$
MNZ037-044-045-052-053-252000-
   East Central Minnesota

CITY           SKY/WX    TMP DP  RH WIND       PRES   REMARKS
PRINCETON      MOSUNNY   27  16  63 N7        30.03F WCI  19
MORA           CLOUDY    23  14  68 E7        30.05F WCI  15
CAMBRIDGE      PTSUNNY   27  14  59 E5        30.03S WCI  21
RUSH CITY      MOSUNNY   25  15  66 CALM      30.04F
MOOSE LAKE     CLOUDY    27  14  59 NE9       30.02R WCI  17
HINCKLEY       CLOUDY    27  16  63 CALM      30.03F
CLOQUET        FLURRIES  21  14  73 E9        30.03S WCI  11
MCGREGOR       CLOUDY    25  18  74 E5        30.03S WCI  19
$$
MNZ071>073-080-081-089-090-097-098-252000-
   Southwest Minnesota

CITY           SKY/WX    TMP DP  RH WIND       PRES   REMARKS
MONTEVIDEO     CLOUDY    32  27  80 SE3       30.03F
GRANITE FALLS  CLOUDY    30  25  81 CALM      30.03F
CANBY          CLOUDY    28  25  90 CALM      30.04F
MARSHALL       CLOUDY    28  25  86 N12       30.03S WCI  18
REDWOOD FALLS  CLOUDY    30  22  72 VRB6      30.02S WCI  24
OLIVIA         PTSUNNY   28  23  80 NE7       30.02F WCI  21
PIPESTONE      CLOUDY    30  30 100 N5        29.99S FOG     WCI  25
WINDOM         CLOUDY    28  27  93 N6        30.00S WCI  22
WORTHINGTON    CLOUDY    28  25  86 N8        30.01R WCI  20
JACKSON        CLOUDY    28  25  86 N9        30.00R WCI  20
TRACY          CLOUDY    30  28  90 N6        30.01S FOG     WCI  24
SLAYTON        CLOUDY    29  28  96 CALM      30.00S FOG
$$
MNZ065>067-074>077-082>085-091>093-252000-
   South Central Minnesota

CITY           SKY/WX    TMP DP  RH WIND       PRES   REMARKS
MANKATO        CLOUDY    25  18  74 N8        30.01R WCI  16
NEW ULM        MOSUNNY   27  19  74 N8        30.02S WCI  18
ST JAMES       PTSUNNY   28  25  86 N9        30.03R WCI  20
FAIRMONT       CLOUDY    28  23  80 N12       29.99R WCI  18
GLENCOE        MOSUNNY   25  18  74 N8        30.02S WCI  16
FARIBAULT      CLOUDY    23  16  74 NE8       30.01R WCI  14
OWATONNA       CLOUDY    23  18  80 N8        29.99R WCI  14
WASECA         CLOUDY    25  19  80 N9        30.01R WCI  15
ALBERT LEA     CLOUDY    27  25  93 N7        29.97S WCI  19
$$
MNZ078>079-086>088-094>096-252000-
   Southeast Minnesota

CITY           SKY/WX    TMP DP  RH WIND       PRES   REMARKS
ROCHESTER      CLOUDY    26  19  74 N10       29.96F WCI  16
RED WING       CLOUDY    25  14  63 E5        30.01F WCI  19
STANTON        CLOUDY    24  16  73 N9        30.00S WCI  14
DODGE CENTER   CLOUDY    25  19  80 NE7       29.97S WCI  17
WINONA         SUNNY     30  19  64 NE7       30.00F WCI  23
AUSTIN         CLOUDY    27  21  80 N8        29.96F WCI  18
PRESTON        MOSUNNY   28  20  74 NE6       29.95S WCI  21
$$
ABBREVIATIONS USED IN REMARKS
   TC - TEMPERATURES IN CELSIUS
  WCI - WIND CHILL INDEX
   HX - HEAT INDEX
  VSB - VISIBILITY
$$


USA.gov is the U.S. government's official web portal to all federal, state and local government web resources and services.